Location: Chilton Park
(37.7711°N, 100.0276°W)
Time: 03:55:27
(UTC+00:00)

Cosmos 1500 Rocket - Pass Details

Date: 30 June 2022
Orbit: 602 x 631 km, 82.5° (Epoch: 11 August)

Event Time Altitude Azimuth Distance (km) Brightness Sun altitude
Exits shadow 10:17:27 10° 195° (SSW) 1,967 5.6 -11.1°
Maximum altitude 10:21:46 67° 278° (W) 678 3.6 -10.4°
Drops below altitude 10° 10:26:13 10° 2° (N) 2,012 6.8 -9.8°
Sets 10:28:30 0° 5° (N) 2,927 7.7 -9.4°
